Location: Dreilärchen
(47.9312°N, 8.6113°E)
Time: 22:47:54
(UTC+00:00)

Helios 1A - Pass Details

Date: 26 May 2022
Orbit: 582 x 600 km, 98.2° (Epoch: 29 June)

Event Time Altitude Azimuth Distance (km) Brightness Sun altitude
Exits shadow 01:17:36 - 146° (SE) 2,054 5.5 -16.3°
Reaches altitude 10° 01:17:54 10° 145° (SE) 1,928 5.3 -16.3°
Maximum altitude 01:21:57 50° 70° (ENE) 770 3.8 -16.0°
Drops below altitude 10° 01:26:03 10° 356° (N) 1,951 6.5 -15.6°
Sets 01:28:16 0° 351° (N) 2,860 7.3 -15.4°
